Location: Kumla
(59.1265°N, 15.1401°E)
Time: 00:08:24
(UTC+01:00)

Vanguard 1 Rocket - Pass Details

Date: 08 December 2023
Orbit: 653 x 4219 km, 34.3° (Epoch: 01 March)

Event Time Altitude Azimuth Distance (km) Brightness Sun altitude
Exits shadow 04:38:49 - 223° (SW) 8,087 11.8 -28.5°
Reaches altitude 10° 04:45:16 10° 214° (SW) 6,957 11.5 -27.7°
Maximum altitude 05:00:04 24° 172° (S) 4,715 11.0 -25.8°
Drops below altitude 10° 05:10:14 10° 125° (SE) 4,683 11.8 -24.5°
Sets 05:14:05 0° 112° (ESE) 5,197 12.5 -24.0°
